TimeCDT,TemperatureF,Dew PointF,Humidity,Sea Level PressureIn,VisibilityMPH,Wind Direction,Wind SpeedMPH,Gust SpeedMPH,PrecipitationIn,Events,Conditions,WindDirDegrees,DateUTC
12:56 AM,63.3,59.5,87,30.04,10.0,North,4.6,-,N/A,,Partly Cloudy,10,2012-10-03 05:56:00
1:56 AM,63.3,59.2,86,30.04,10.0,North,3.5,-,N/A,,Mostly Cloudy,10,2012-10-03 06:56:00
2:58 AM,62.6,58.5,86,30.02,10.0,North,5.8,-,N/A,,Mostly Cloudy,10,2012-10-03 07:58:00
3:56 AM,62.2,58.3,87,30.04,10.0,NNW,3.5,-,N/A,,Partly Cloudy,340,2012-10-03 08:56:00
4:57 AM,61.9,58.3,88,30.06,10.0,North,3.5,-,N/A,,Scattered Clouds,360,2012-10-03 09:57:00
5:55 AM,61.2,57.9,89,30.06,10.0,North,2.3,-,N/A,,Scattered Clouds,10,2012-10-03 10:55:00
6:56 AM,61.3,57.7,88,30.09,10.0,North,3.5,-,N/A,,Mostly Cloudy,360,2012-10-03 11:56:00
7:55 AM,65.8,56.8,73,30.10,10.0,Variable,3.5,-,N/A,,Mostly Cloudy,0,2012-10-03 12:55:00
8:55 AM,70.7,59.2,67,30.12,10.0,NE,5.8,-,N/A,,Mostly Cloudy,40,2012-10-03 13:55:00
9:55 AM,71.6,59.7,66,30.13,10.0,NNE,5.8,-,N/A,,Mostly Cloudy,20,2012-10-03 14:55:00
10:55 AM,72.7,60.4,65,30.13,10.0,NE,5.8,-,N/A,,Mostly Cloudy,50,2012-10-03 15:55:00
11:55 AM,74.5,60.4,61,30.13,10.0,NE,5.8,-,N/A,,Mostly Cloudy,50,2012-10-03 16:55:00
12:56 PM,76.6,60.3,57,30.12,10.0,NNE,8.1,-,N/A,,Mostly Cloudy,30,2012-10-03 17:56:00
1:55 PM,77.4,60.6,56,30.10,10.0,NE,8.1,-,N/A,,Mostly Cloudy,40,2012-10-03 18:55:00
2:55 PM,78.3,59.9,53,30.09,10.0,ENE,5.8,-,N/A,,Mostly Cloudy,70,2012-10-03 19:55:00
3:58 PM,79.7,60.1,51,30.09,10.0,ENE,5.8,-,N/A,,Mostly Cloudy,70,2012-10-03 20:58:00
4:58 PM,79.2,60.3,52,30.09,10.0,East,6.9,-,N/A,,Mostly Cloudy,80,2012-10-03 21:58:00
5:57 PM,77.2,62.2,60,30.10,10.0,ENE,5.8,-,N/A,,Mostly Cloudy,70,2012-10-03 22:57:00
6:56 PM,75.0,63.0,66,30.12,10.0,ENE,4.6,-,N/A,,Mostly Cloudy,60,2012-10-03 23:56:00
7:55 PM,73.6,63.3,70,30.12,10.0,NE,4.6,-,N/A,,Mostly Cloudy,40,2012-10-04 00:55:00
8:55 PM,72.1,63.3,74,30.14,10.0,NNE,4.6,-,N/A,,Mostly Cloudy,30,2012-10-04 01:55:00
9:55 PM,71.2,62.2,73,30.15,10.0,NNE,4.6,-,N/A,,Mostly Cloudy,30,2012-10-04 02:55:00
10:57 PM,70.9,62.8,75,30.14,10.0,ENE,5.8,-,N/A,,Mostly Cloudy,60,2012-10-04 03:57:00
11:56 PM,68.9,63.5,83,30.16,10.0,NE,5.8,-,N/A,,Mostly Cloudy,40,2012-10-04 04:56:00